Location: Archemont
(49.1579°N, 1.7598°E)
Time: 09:43:56
(UTC+00:00)

deb Explorer IX - Pass Details

Date: 19 April 2024
Orbit: 513 x 891 km, 38.7° (Epoch: 23 May)

Event Time Altitude Azimuth Distance (km) Brightness Sun altitude
Rises 16:39:59 0° 263° (W) 3,506 ? 20.4°
Reaches altitude 10° 16:44:30 10° 233° (SW) 2,519 ? 19.7°
Maximum altitude 16:46:32 12° 213° (SSW) 2,363 ? 19.4°
Drops below altitude 10° 16:48:32 10° 193° (SSW) 2,455 ? 19.0°
Sets 16:52:47 0° 163° (SSE) 3,297 ? 18.3°
